Lapse_Rate
9.1 9.2 9.2 9.2 9.2 9.3 9.2 9.3 9.3 9.3 9.3 9.3 9.3 8.9 8.6 9.4 9.4 8.8 7.9 8.0 7.9 7.3 7.7 8.1 7.6 6.9 6.8 6.8 6.5 6.7 6.7 6.6 6.5 6.5 6.5 6.5 6.5 6.5 6.5 6.5 6.5 6.5 6.5 6.5 6.5 6.5 6.5 6.8 6.7 6.5 6.6 7.1 7.1 7.2
9.0 9.2 9.2 9.2 9.3 9.2 9.3 9.3 9.5 9.4 9.4 9.4 9.3 8.7 8.8 9.3 9.3 9.5 7.8 8.3 7.9 6.7 7.2 6.9 6.0 6.5 6.1 5.2 6.1 6.5 6.8 6.5 6.6 6.5 6.5 6.5 6.5 6.5 6.5 6.5 6.5 6.5 6.5 6.5 6.5 6.5 6.6 7.1 6.9 6.7 7.1 7.2 7.3 7.2
8.8 9.4 9.3 9.2 9.2 9.2 9.3 9.4 9.5 9.3 9.3 9.1 8.8 9.0 9.6 9.5 9.4 9.5 8.1 8.2 7.7 7.0 7.3 7.1 6.5 5.7 5.2 5.0 4.3 7.0 6.2 6.6 6.6 6.0 6.6 6.5 6.5 6.5 6.5 6.5 6.5 6.5 6.6 6.5 6.5 6.5 6.5 7.0 7.3 7.6 7.6 7.5 7.1 6.6
9.3 9.1 9.1 9.2 9.2 9.2 9.2 9.3 9.3 9.2 9.0 8.9 9.2 9.5 9.4 9.4 9.4 9.5 8.1 8.3 7.7 7.0 6.7 6.7 6.0 6.4 5.7 5.3 5.2 5.8 6.0 6.0 6.1 6.0 6.6 6.5 6.5 6.7 6.5 6.5 6.5 6.5 6.5 6.5 6.5 6.5 6.9 7.2 7.4 7.4 6.7 6.3 6.0 6.7
9.2 8.9 9.2 9.2 9.1 9.1 9.1 9.4 9.3 9.3 9.4 9.5 9.4 9.4 9.3 9.2 9.4 8.9 7.5 7.4 8.0 7.0 6.6 7.0 6.2 5.9 5.8 5.9 6.1 6.4 6.4 5.7 5.9 6.4 6.5 6.5 6.6 6.6 6.5 6.5 6.5 6.7 6.5 6.5 6.5 6.8 6.8 6.9 7.5 7.2 7.0 6.9 6.4 6.1
9.2 9.2 9.2 9.0 8.7 8.6 9.1 9.3 9.3 9.4 9.3 9.4 9.4 9.4 9.0 9.4 9.3 8.1 7.1 4.7 4.5 5.0 6.9 6.5 6.6 6.1 5.6 5.8 5.0 4.8 5.1 5.2 6.2 6.8 6.6 6.9 6.7 6.7 6.5 6.5 6.6 7.0 6.8 7.4 6.8 7.3 7.4 7.7 7.6 7.1 6.4 6.0 6.0 5.8
8.6 8.6 8.6 8.6 8.6 8.7 8.9 9.4 9.3 9.2 9.4 9.4 8.8 9.2 9.3 9.3 8.7 7.7 6.9 6.0 4.8 4.7 6.9 6.5 6.5 6.4 5.4 5.9 6.2 6.4 5.8 6.5 6.9 6.9 6.7 6.7 6.8 6.8 6.5 6.5 6.6 7.0 6.9 6.5 6.4 5.9 6.8 6.7 7.3 6.8 6.3 5.8 5.3 5.5
9.1 8.6 8.4 9.2 8.9 8.6 9.1 9.2 8.8 9.4 9.3 9.3 9.3 8.8 8.0 7.0 6.7 7.0 6.0 5.9 4.4 6.1 6.7 6.5 6.5 6.7 5.8 6.9 6.7 6.6 7.0 6.9 6.8 6.9 7.0 6.5 6.8 6.7 6.5 6.6 7.0 7.0 6.7 6.4 6.4 7.4 7.6 7.5 6.5 5.4 5.6 6.0 5.7 5.7
9.3 9.3 9.3 8.5 8.4 8.7 9.3 9.3 9.3 9.2 8.9 8.4 7.5 6.3 6.6 5.8 6.4 6.3 5.7 5.9 4.6 6.2 6.6 6.6 6.5 6.5 6.5 7.1 7.0 7.0 7.0 6.5 7.0 6.5 6.5 6.7 6.5 6.5 6.5 6.8 7.1 6.9 7.1 7.1 8.5 8.3 7.2 6.1 5.8 6.2 5.9 5.9 5.5 5.4
8.6 8.6 8.4 8.4 8.4 9.2 9.3 9.3 9.3 8.2 7.9 6.7 4.9 5.1 5.7 5.8 6.8 6.6 6.3 6.7 6.6 6.8 7.1 6.5 7.2 6.5 7.0 6.9 6.6 6.6 6.9 6.5 6.5 6.5 7.0 6.5 6.5 6.9 7.1 6.8 6.3 6.6 5.7 7.8 7.2 7.1 6.9 6.5 6.0 5.9 5.3 5.3 5.7 5.5
8.1 8.2 8.3 8.2 8.3 8.3 9.0 9.0 8.5 7.9 6.6 5.8 4.9 6.5 5.3 6.1 6.5 6.4 6.8 6.7 6.8 6.5 7.0 7.0 6.9 6.5 6.3 6.5 6.5 7.0 6.5 6.5 6.5 6.5 6.5 6.5 6.5 6.6 6.6 6.4 6.6 7.1 6.8 6.8 6.6 6.8 6.3 5.7 5.5 5.1 5.1 5.0 5.1 5.3
8.3 8.2 8.2 8.1 8.0 8.6 8.7 8.9 9.0 6.4 5.4 7.3 7.3 6.8 6.0 6.5 6.8 6.5 6.5 6.6 6.5 6.5 6.9 6.5 6.8 7.0 6.9 6.3 6.6 6.6 6.5 6.5 6.5 6.7 6.5 6.5 6.5 6.8 6.8 5.8 5.4 5.7 5.1 5.1 5.2 5.0 5.1 5.1 5.4 5.4 5.5 5.4 5.3 5.1
8.1 8.0 7.8 7.9 8.5 8.6 8.2 7.6 7.8 7.1 4.4 4.7 5.2 5.8 6.2 6.2 6.5 6.5 6.5 6.5 6.5 6.7 7.0 6.9 6.6 7.1 7.0 6.6 6.6 6.5 6.5 6.5 6.7 6.5 6.5 6.5 6.9 6.7 5.7 5.5 4.8 4.9 4.6 4.7 4.7 4.7 4.8 4.7 5.1 5.3 5.1 4.9 4.8 4.9
8.2 7.9 7.5 7.3 7.6 7.4 7.0 6.6 6.1 4.4 4.4 3.3 5.4 6.5 6.5 6.5 6.5 6.5 6.5 6.5 7.0 7.0 6.9 7.0 6.8 6.6 7.0 6.5 6.5 6.5 6.5 6.5 6.5 6.5 6.5 6.5 6.9 6.0 5.6 5.3 5.0 4.7 4.6 4.5 4.5 4.7 4.7 5.0 4.7 4.6 4.5 4.4 4.5 4.9
7.7 7.4 7.1 6.3 7.2 6.9 6.0 5.2 4.5 2.0 4.2 4.7 5.6 6.5 6.5 6.8 6.9 6.8 6.8 6.8 7.1 6.6 7.1 6.9 6.8 6.8 6.5 6.5 6.5 6.5 6.5 6.5 6.5 6.5 6.5 7.0 5.6 5.4 5.0 4.4 4.1 4.4 4.4 4.1 4.3 4.5 4.4 4.4 4.4 4.4 4.0 4.1 4.3 4.7
7.0 6.2 5.5 6.6 6.8 6.0 4.7 1.6 1.2 2.4 3.1 5.2 6.9 6.6 7.0 6.6 6.6 6.9 7.0 7.0 7.4 7.3 6.4 6.5 6.5 6.5 6.5 6.5 6.5 6.5 6.5 6.5 6.5 6.5 7.0 5.7 4.9 4.7 4.4 4.1 4.0 4.2 4.4 4.4 4.3 4.2 4.2 4.1 4.1 4.0 4.1 4.4 4.8 5.1
6.8 5.9 6.5 6.5 6.2 4.6 3.2 -0.1 0.4 0.9 4.8 6.3 6.8 6.9 7.0 7.0 6.9 7.1 7.4 7.5 6.7 7.0 6.5 6.5 6.5 6.5 6.5 6.5 6.5 6.5 6.5 6.5 6.9 7.1 6.0 5.2 4.6 4.5 4.5 4.4 4.4 4.3 4.2 4.0 4.1 4.1 4.1 3.8 4.0 4.5 4.9 4.8 4.8 5.2
5.4 5.4 6.2 5.9 4.7 2.7 0.9 -1.0 -0.1 2.0 5.6 5.9 6.7 7.0 7.0 7.2 7.3 7.4 7.6 7.1 6.0 6.9 6.8 6.5 6.8 6.5 6.5 6.5 6.5 6.5 7.0 6.9 6.3 5.8 5.4 4.8 4.6 4.6 4.6 4.1 3.8 3.7 3.5 3.1 3.0 3.2 3.5 3.9 4.6 5.2 5.1 5.4 5.5 6.0
6.5 6.4 6.2 5.0 3.5 0.1 0.4 2.3 1.8 3.8 4.9 5.1 5.7 6.1 6.0 7.5 7.7 7.6 7.0 6.2 6.3 5.9 5.5 5.9 6.5 6.5 6.5 6.8 6.8 7.0 6.3 6.9 6.9 5.4 4.4 3.8 3.7 3.8 3.7 3.5 3.5 3.3 3.0 2.9 3.3 3.9 4.4 4.9 5.5 5.9 6.3 6.6 6.7 7.1
6.0 5.8 5.3 3.8 2.4 -0.5 1.4 3.1 2.1 3.4 5.4 4.9 4.4 3.9 5.7 7.0 6.7 6.9 5.9 5.8 5.8 6.3 6.6 6.5 6.5 7.0 7.1 7.2 6.1 5.4 5.4 5.8 5.8 5.9 5.5 4.7 4.1 3.6 3.0 3.1 3.1 3.0 3.4 3.5 4.2 5.6 5.7 6.2 6.6 6.7 6.7 8.1 7.6 6.6
3.9 4.2 2.9 1.4 -2.8 -2.3 -0.9 -0.3 3.1 2.3 3.2 3.8 0.8 2.4 4.6 3.2 5.2 5.3 5.5 6.1 6.2 7.0 6.7 7.3 7.4 7.3 5.9 4.7 3.8 4.2 3.6 4.2 3.8 4.8 5.4 5.0 4.2 3.9 3.5 3.4 3.3 3.9 3.6 3.9 4.4 5.2 6.2 6.5 6.7 6.6 6.4 6.5 6.3 6.4
3.4 3.7 -0.5 -0.7 -1.5 -1.5 -0.5 -1.4 1.4 0.1 2.0 1.4 1.8 1.0 3.4 5.6 4.9 5.2 5.3 6.9 7.1 7.4 7.4 7.4 7.1 7.0 5.1 3.4 2.9 2.0 2.8 3.4 3.0 3.6 3.5 4.4 3.8 3.6 3.6 3.9 4.1 3.2 4.1 4.7 5.2 5.9 6.4 6.4 7.0 7.1 6.4 6.2 6.2 5.6
2.9 1.8 -2.2 -1.8 1.0 0.9 2.6 -1.9 2.0 -0.3 6.7 4.4 1.4 5.4 5.2 4.6 3.7 3.3 6.2 7.2 7.5 7.4 6.3 6.3 6.8 5.8 4.8 4.0 3.3 2.3 1.6 2.1 2.2 2.2 2.6 3.2 3.6 4.0 4.4 4.6 4.8 3.9 4.4 5.5 6.2 6.7 6.5 7.1 6.3 6.5 5.9 5.5 5.3 5.3
0.1 -2.7 -1.8 -1.4 -0.0 3.9 0.0 0.7 0.9 2.1 2.1 5.4 6.5 6.5 6.1 4.5 1.6 5.2 6.5 7.0 7.4 6.4 5.5 5.3 5.5 5.6 4.5 2.9 1.8 1.7 1.3 1.5 1.8 2.3 2.3 3.4 3.7 3.8 4.0 4.7 5.0 5.4 5.5 6.0 6.4 6.3 6.2 6.1 6.4 5.6 5.2 4.9 5.0 5.1
1.8 3.2 1.2 3.9 -0.3 3.1 6.5 6.5 5.5 6.1 6.5 6.5 6.5 6.5 6.2 3.1 6.5 6.5 6.5 6.9 6.8 5.6 4.9 4.6 4.5 3.7 3.1 3.0 3.3 2.5 1.4 0.8 0.9 1.4 2.2 2.1 2.6 3.7 3.6 4.1 4.9 5.5 5.9 5.6 5.5 5.7 5.7 5.7 5.7 5.5 5.2 5.0 5.1 5.4
6.5 3.1 3.9 4.1 3.8 5.8 6.3 6.5 6.5 6.5 6.5 6.5 6.5 5.3 4.7 6.3 6.5 6.5 6.6 6.0 5.6 5.2 3.6 2.8 2.5 2.6 3.0 2.4 1.7 1.2 0.7 0.2 0.1 2.0 2.6 2.1 2.4 2.9 3.6 4.1 4.6 5.1 6.3 5.2 5.3 5.9 5.8 5.7 5.5 5.2 5.2 5.4 6.0 5.5
6.5 5.3 4.7 6.1 5.9 5.5 5.6 5.1 5.3 5.9 6.5 6.5 6.4 6.4 6.5 6.5 6.5 6.7 6.3 4.8 4.2 3.6 2.2 1.5 1.2 1.0 1.3 1.4 1.8 1.4 0.4 -0.1 -0.6 1.1 1.9 2.2 3.5 4.2 4.6 5.0 4.5 4.7 4.4 5.4 5.5 5.7 5.8 5.7 5.5 5.4 5.3 5.3 5.2 4.8
3.5 3.4 6.2 3.5 3.5 3.4 5.0 5.4 6.6 6.5 6.4 6.4 5.9 6.5 6.5 6.5 6.5 5.9 5.3 4.3 2.8 1.2 0.2 -0.1 0.0 -1.3 -1.7 -1.1 -1.5 -1.8 -0.3 0.3 1.4 1.3 2.5 3.9 3.8 3.9 2.8 3.7 3.9 5.1 4.9 5.1 5.7 5.6 5.6 5.5 5.5 5.5 5.2 5.0 5.0 4.8
3.4 3.9 4.3 2.2 1.9 2.3 3.9 4.7 5.6 6.4 6.2 5.9 6.3 6.5 6.1 6.0 4.5 3.7 4.2 3.1 0.8 0.2 0.6 0.5 0.2 -2.6 -1.1 -1.1 -1.2 -0.1 0.4 0.5 0.1 0.3 1.3 2.1 2.3 2.9 3.7 2.7 2.6 3.2 4.4 3.9 4.8 5.4 5.4 6.0 6.0 5.4 4.7 4.3 4.2 3.6
5.3 4.2 3.8 4.4 5.0 6.5 5.1 4.1 3.6 3.7 3.9 3.0 4.5 5.3 5.2 4.9 4.2 3.3 3.0 2.4 1.7 0.9 -0.0 -1.4 -2.0 -2.2 0.0 0.2 0.5 1.0 0.5 0.2 0.4 0.4 0.8 1.7 2.4 2.8 2.4 2.1 3.0 4.1 3.6 3.4 3.4 3.5 4.4 4.5 3.7 3.0 2.8 2.9 2.8 2.4
5.4 4.7 4.7 4.3 4.3 4.4 3.3 2.4 2.6 3.0 -0.2 -0.5 -2.0 1.6 3.6 3.5 4.0 3.5 2.1 1.4 0.6 1.0 1.3 1.1 0.6 -0.4 -0.5 -0.4 -0.9 -0.9 0.5 -0.3 -1.2 -0.3 0.5 1.9 2.2 2.1 2.8 4.5 4.2 3.2 2.9 3.1 3.3 3.4 3.3 3.0 2.7 2.3 2.4 2.4 2.2 2.7
4.8 4.3 5.9 6.5 5.0 2.7 2.4 2.7 2.3 1.6 0.7 0.3 1.3 -0.3 1.6 2.7 3.2 3.8 3.0 1.5 2.3 1.9 2.7 1.4 0.6 0.4 -0.2 -1.3 -2.2 -2.3 0.5 -0.4 -1.7 -1.4 -2.1 0.6 3.9 5.5 6.1 3.7 2.7 2.4 2.6 2.5 2.8 3.1 3.0 2.5 2.2 2.1 2.0 2.1 1.9 2.0
3.4 3.6 3.6 4.1 3.5 3.9 2.5 2.5 3.1 2.5 2.0 2.7 3.6 3.2 3.0 4.1 4.1 4.2 2.0 1.2 1.9 1.9 1.6 0.9 0.3 -0.6 -1.4 -2.2 -1.9 -1.9 -0.1 -2.2 -2.1 2.2 2.8 4.4 5.5 7.5 4.8 2.7 2.1 2.2 2.0 2.0 2.5 2.5 2.5 2.0 1.9 1.5 1.3 1.3 1.7 1.4
Wind_Speed
28 28 29 29 29 28 29 27 28 27 25 23 21 21 20 19 20 11 7 9 5 7 15 22 15 12 9 6 6 2 4 2 3 4 3 3 3 5 4 7 8 7 7 4 3 4 7 5 5 6 3 5 11 14
27 29 29 28 28 29 28 27 27 27 25 23 21 20 21 20 18 19 6 6 5 5 9 18 18 15 8 4 4 4 2 3 2 3 1 3 3 3 6 6 1 5 5 7 3 2 3 4 3 4 6 14 12 17
29 29 29 29 28 27 28 27 28 28 26 22 18 19 20 18 19 17 6 4 4 4 8 6 5 3 5 6 3 4 1 1 1 1 2 2 4 1 4 3 5 1 1 4 6 3 5 6 8 11 12 16 18 18
28 29 28 27 27 28 28 28 27 26 24 21 19 20 21 21 19 21 6 5 3 4 5 4 1 5 5 7 8 7 4 1 2 1 2 2 3 2 2 4 3 1 3 7 5 6 11 9 11 16 18 18 18 17
29 29 28 28 27 28 28 26 23 21 21 21 21 21 23 22 21 16 6 7 8 6 3 5 4 2 6 7 7 6 3 3 2 2 3 2 2 2 1 2 3 4 3 2 3 11 6 10 13 18 20 19 19 19
30 29 28 26 27 27 25 24 23 23 24 23 23 23 23 21 20 3 4 1 1 1 3 3 1 2 3 4 8 7 3 3 2 2 3 2 2 1 3 3 4 4 5 2 6 7 16 17 15 17 19 16 13 14
27 25 25 26 26 26 25 24 22 24 25 26 27 24 22 21 7 4 4 1 3 1 3 2 2 1 3 2 2 3 4 3 3 2 3 2 3 4 3 3 2 7 9 13 18 22 17 15 13 13 15 15 14 12
26 25 26 25 27 27 22 23 22 24 26 25 25 24 20 10 4 4 1 3 3 3 2 2 1 1 4 2 2 4 3 2 5 3 2 3 2 3 4 6 7 9 12 12 12 12 15 15 14 13 13 12 12 10
25 25 26 28 27 22 23 24 24 25 25 25 22 10 0 2 1 1 10 6 1 2 1 0 1 1 5 3 3 3 2 4 3 4 3 2 4 6 6 9 11 6 6 14 18 18 15 15 13 12 11 10 10 7
21 24 26 25 20 23 23 23 23 22 26 14 4 2 1 0 13 7 1 1 0 1 1 1 2 1 3 2 3 2 3 3 3 4 3 4 4 5 7 5 7 10 14 19 16 13 15 13 11 9 9 7 7 6
20 22 21 21 23 23 23 23 20 20 7 3 4 2 2 10 1 2 2 2 2 1 2 2 4 1 4 3 2 3 2 2 3 3 3 3 3 4 8 7 8 10 10 11 13 12 12 12 10 9 7 6 6 5
19 19 20 23 23 25 24 23 23 5 1 5 5 4 2 3 3 3 3 3 3 4 4 2 3 3 2 2 2 3 3 1 4 1 3 3 2 3 3 7 10 12 15 15 14 14 11 10 8 8 6 5 4 3
18 17 20 23 27 27 25 25 23 18 4 1 1 2 3 4 6 5 7 2 4 5 4 3 3 2 1 3 4 2 5 4 0 4 3 2 2 4 5 9 12 12 14 14 12 11 10 9 7 6 5 3 2 1
16 16 22 26 34 32 26 25 18 7 3 3 4 7 4 4 4 2 3 3 2 2 5 3 1 2 2 3 2 5 2 2 4 3 3 2 2 4 6 7 10 10 11 11 10 9 8 7 6 5 4 2 1 2
24 18 19 26 36 32 24 20 13 4 3 4 4 5 4 5 3 4 3 1 4 3 2 1 1 2 4 4 4 3 3 5 4 3 3 4 5 7 8 8 9 8 8 8 6 6 5 4 4 3 3 3 2 2
24 14 8 35 35 29 23 8 6 2 3 4 6 4 7 4 7 7 7 6 4 5 1 1 2 3 6 3 5 4 3 4 3 3 4 5 7 8 8 8 8 7 7 6 5 5 4 4 3 3 2 2 2 2
14 2 25 32 32 17 19 4 4 6 4 5 4 3 5 3 4 6 7 8 7 2 3 2 6 3 1 4 4 4 4 5 6 6 5 7 9 8 8 8 7 6 6 5 4 4 3 3 3 2 3 3 3 4
3 16 22 28 22 6 3 4 4 4 6 3 3 7 5 5 8 7 8 7 5 3 3 3 3 8 5 4 4 3 5 5 6 7 7 7 8 8 7 8 7 6 5 5 5 4 3 4 4 3 3 3 4 3
13 13 22 20 8 3 3 5 4 3 2 2 5 5 3 4 7 7 7 8 3 2 4 3 7 5 5 5 5 3 2 3 5 5 6 8 8 8 7 6 6 6 5 4 5 3 3 3 3 3 3 3 3 3
12 10 23 14 9 3 5 3 2 3 3 3 3 5 4 4 7 8 12 11 7 4 9 6 6 4 4 5 5 3 3 4 6 6 6 5 5 6 7 5 4 5 4 4 3 5 2 3 2 3 3 4 4 4
10 9 13 8 4 5 4 3 3 1 3 2 4 3 3 3 6 8 7 8 6 5 5 6 6 6 7 6 6 5 7 6 5 3 3 3 4 4 5 5 5 4 4 3 3 4 5 4 5 4 4 5 4 4
3 12 3 5 4 4 4 2 1 2 1 1 2 3 3 3 4 5 4 7 4 4 4 5 6 5 7 9 8 8 6 7 8 7 9 5 4 4 5 5 4 4 3 3 3 4 5 5 5 4 4 5 6 5
7 5 4 5 5 6 3 2 4 6 3 4 2 4 3 3 2 3 3 3 3 5 6 4 5 7 7 7 8 11 10 7 6 6 5 3 3 3 4 4 4 3 4 4 5 5 5 8 6 5 5 5 4 4
8 4 5 4 4 2 2 5 2 3 3 4 3 3 4 3 4 3 3 2 3 5 7 9 6 3 3 5 7 7 7 5 3 3 4 4 4 4 4 4 4 4 3 4 5 5 5 5 8 5 5 5 5 4
6 7 5 6 3 5 6 5 5 4 3 3 3 3 3 3 3 3 2 2 3 5 6 6 5 5 4 3 4 5 6 6 4 2 2 3 2 3 6 6 5 5 4 6 7 7 6 6 5 5 5 5 5 6
5 4 3 2 3 3 1 3 3 3 2 3 2 2 2 2 4 3 1 3 3 3 5 5 5 4 4 5 4 6 6 5 4 0 1 3 2 2 4 6 7 5 5 6 6 8 8 7 6 7 6 7 9 5
4 3 2 2 1 2 2 2 2 3 3 3 3 3 3 4 2 1 1 2 2 2 4 4 3 3 3 3 3 4 5 4 2 3 4 3 3 2 3 5 8 7 8 9 8 7 8 8 7 7 7 6 5 4
2 1 2 4 2 2 2 2 2 1 1 2 1 4 3 2 2 1 2 2 3 3 3 1 1 2 2 2 2 4 4 7 5 2 1 2 3 3 3 4 5 16 9 8 8 6 7 7 8 8 7 6 5 4
2 1 1 4 2 3 2 1 0 1 2 0 2 2 2 2 1 1 2 3 3 2 3 3 3 4 2 1 1 1 2 5 6 5 7 5 5 3 7 7 8 7 7 7 15 13 11 8 6 6 5 5 5 4
2 1 2 2 2 2 1 1 1 0 2 2 1 2 2 1 1 1 2 2 3 3 2 2 2 2 2 3 3 3 1 1 4 4 4 5 6 9 9 9 7 8 7 8 8 9 13 8 8 4 4 3 2 2
2 0 2 2 2 1 1 1 1 2 2 2 2 3 2 0 1 0 2 1 2 2 2 4 4 2 2 3 3 3 3 1 3 6 6 6 8 8 8 6 7 6 7 8 8 7 8 7 6 6 6 5 5 3
2 2 1 2 1 1 1 1 1 2 2 3 2 2 2 2 2 1 1 2 2 3 6 5 4 4 3 3 3 3 9 5 5 6 9 7 7 8 6 8 10 7 7 8 8 7 8 7 6 6 6 6 5 4
1 1 2 2 2 1 2 2 3 2 3 2 2 1 0 0 2 1 1 2 1 2 3 5 5 4 5 5 4 4 5 6 13 15 16 17 18 18 12 11 10 7 8 7 7 7 8 9 7 8 7 7 6 4
Wind_Direction
318 320 320 317 315 319 312 314 319 317 311 307 307 304 296 296 300 303 280 270 272 275 278 270 286 291 287 279 289 238 141 288 129 182 184 147 136 178 124 143 164 156 153 177 161 203 229 147 115 194 105 104 135 138
316 316 314 313 317 315 314 315 318 319 314 313 309 299 294 295 300 302 290 282 306 268 281 286 281 255 227 254 289 291 337 117 110 120 228 128 125 154 142 170 227 157 170 166 214 119 59 38 40 110 128 131 129 124
318 316 316 316 313 316 313 319 319 316 316 311 305 297 305 306 298 300 285 285 289 275 278 252 251 203 238 240 226 286 341 50 120 87 127 98 116 188 146 145 114 84 26 95 152 55 73 79 84 106 121 121 118 116
314 317 317 319 320 318 318 315 323 319 317 314 310 309 310 301 300 301 285 270 237 276 276 292 320 261 284 262 262 254 294 199 75 55 109 112 115 337 77 96 94 14 115 115 84 112 102 72 110 118 110 109 109 110
318 316 317 318 320 320 318 319 321 320 320 318 313 308 308 305 297 310 279 264 235 218 290 303 298 265 294 276 256 245 221 44 26 73 60 73 80 104 53 95 78 359 99 155 111 166 91 123 121 120 113 114 115 112
317 318 318 321 319 319 318 323 320 317 318 315 309 308 304 302 315 337 302 70 3 161 262 258 352 303 330 46 69 59 53 53 60 73 70 67 38 30 87 76 15 11 39 356 126 103 110 117 109 111 111 109 103 103
326 325 323 322 321 322 318 320 316 313 315 312 310 305 307 306 299 246 247 343 180 161 252 267 264 11 312 335 49 54 30 48 60 79 60 48 33 34 58 81 44 49 91 104 117 112 94 103 115 103 102 101 97 98
325 328 326 324 327 327 323 326 319 316 316 315 314 312 311 311 303 249 317 312 156 241 256 267 294 267 356 38 71 9 59 32 31 66 49 33 39 53 66 27 63 77 88 73 97 105 111 118 110 103 111 115 104 100
321 325 328 329 331 330 330 326 325 324 323 318 319 321 271 43 296 291 278 249 227 279 273 306 254 88 343 50 52 45 39 65 39 45 37 27 32 48 30 95 98 108 83 115 109 110 113 110 113 113 109 102 105 105
317 324 326 331 337 334 333 329 332 334 325 329 16 22 311 261 299 307 154 198 32 20 2 29 356 38 349 36 61 68 32 52 69 40 337 53 56 46 21 12 81 119 129 128 115 120 120 114 116 106 97 95 104 110
331 334 342 343 336 333 329 333 340 343 348 10 355 319 303 325 310 25 45 16 345 72 11 34 22 61 14 59 86 20 83 34 75 30 46 69 51 2 348 59 65 93 100 93 100 103 106 114 117 115 107 101 102 100
7 7 5 3 0 353 347 343 343 357 262 285 308 314 319 360 20 19 13 356 11 23 360 26 26 30 34 357 94 18 87 46 82 348 73 74 40 326 70 70 78 93 92 89 95 102 100 96 98 101 102 105 97 90
11 11 1 354 352 344 341 338 337 335 360 60 40 19 354 344 32 20 357 358 350 348 1 17 52 17 42 49 70 68 68 65 202 48 70 45 10 55 78 96 83 84 88 91 87 88 91 92 81 82 95 83 66 9
344 349 353 350 351 347 344 340 347 3 48 57 26 20 34 5 359 324 309 299 306 323 10 354 38 43 12 61 20 78 58 159 76 70 78 96 101 96 82 84 91 82 82 86 85 87 87 90 87 77 73 66 348 321
346 330 338 344 347 347 346 348 5 34 50 47 29 31 9 320 287 294 316 315 3 324 333 221 78 53 31 73 36 114 73 64 43 83 97 126 118 110 94 85 85 86 83 82 81 84 80 71 64 66 45 19 347 331
345 339 332 339 342 346 351 3 20 44 48 47 36 3 332 337 353 6 357 358 348 336 242 16 75 62 46 40 52 26 73 55 94 91 113 117 100 92 91 85 80 80 80 80 69 64 68 53 34 13 4 41 359 324
341 327 325 335 340 343 9 49 30 40 54 27 353 325 333 302 330 342 345 341 322 330 39 27 47 30 301 50 47 22 57 96 107 97 86 88 96 92 87 83 79 75 70 66 68 54 44 29 17 18 5 8 353 331
295 317 336 342 347 356 33 31 68 55 39 358 347 344 337 353 355 2 340 340 3 25 28 68 95 34 51 50 62 77 77 81 78 88 85 80 81 75 74 75 63 56 55 47 32 28 24 18 12 360 337 329 313 307
327 339 348 353 6 68 47 21 45 79 3 323 320 341 334 1 7 356 360 7 29 75 98 51 56 27 53 46 82 89 94 99 105 87 74 61 61 64 62 61 60 51 50 33 20 13 6 356 335 326 313 310 303 308
338 348 354 7 28 62 50 13 40 64 34 332 344 348 345 10 345 6 24 18 11 35 40 44 38 27 40 38 27 43 55 109 112 101 81 62 56 62 53 49 42 27 31 19 16 9 359 351 347 334 314 309 322 307
350 345 356 19 40 57 83 357 54 46 326 44 332 358 337 345 14 14 18 357 39 29 50 51 57 51 46 41 34 43 49 57 58 54 94 92 56 56 47 38 26 26 17 4 357 347 356 340 326 322 323 319 312 296
319 350 24 14 64 30 79 11 42 321 36 344 25 3 22 15 354 18 339 32 49 21 9 16 41 47 48 41 34 33 31 58 56 62 55 69 54 37 27 14 11 4 349 342 333 332 331 331 320 325 320 313 318 307
354 22 36 21 64 38 312 11 54 3 45 345 11 37 18 360 342 321 62 44 54 12 5 11 36 53 57 45 51 43 32 41 57 48 41 55 63 41 18 3 358 345 344 349 339 333 327 324 326 324 324 322 316 312
32 46 41 42 38 351 349 18 25 27 41 22 32 25 6 340 330 57 68 57 34 9 19 15 21 38 27 33 40 31 19 18 49 64 31 35 40 21 345 347 350 344 334 326 331 324 321 319 327 325 317 310 307 298
59 349 53 355 343 28 26 5 356 30 41 352 46 24 353 350 64 58 60 29 5 11 8 2 22 37 42 19 32 24 25 18 13 11 22 17 359 5 11 357 343 330 327 337 332 325 320 313 313 309 309 303 293 298
63 316 59 333 324 57 355 33 24 360 12 23 8 298 1 69 62 54 35 351 343 354 355 354 355 356 21 23 3 5 355 352 336 355 25 12 15 3 337 341 338 334 342 320 304 314 315 313 309 308 307 308 318 335
52 323 332 23 332 89 55 46 38 72 47 26 338 6 44 67 76 106 100 30 331 343 327 319 322 329 318 330 334 341 331 333 299 278 299 307 299 284 278 315 322 314 307 314 313 299 298 303 304 300 295 295 288 281
143 55 23 317 48 13 116 49 53 49 309 324 17 36 108 134 120 51 19 12 344 322 311 291 333 323 274 264 292 329 341 340 335 337 259 283 279 287 290 301 308 317 314 312 318 312 305 299 289 284 279 276 279 269
49 334 136 22 22 46 55 93 122 29 356 8 102 105 118 59 17 344 353 353 350 7 23 10 351 345 346 350 273 268 352 13 13 17 16 357 342 318 335 323 315 306 325 319 322 329 319 310 326 308 296 285 283 274
360 359 85 57 74 48 1 9 149 267 56 88 76 99 79 60 45 360 343 359 16 8 348 306 296 350 359 358 338 339 186 76 41 15 332 330 314 305 306 308 310 331 326 321 319 318 328 336 328 330 326 310 291 262
342 293 86 64 104 53 6 336 343 57 46 54 9 90 94 134 278 293 10 350 336 347 355 4 356 1 347 355 353 337 328 309 311 315 289 287 288 292 293 313 331 325 320 320 321 320 326 330 331 328 329 325 310 320
4 43 93 111 108 319 38 62 42 66 18 50 22 57 26 52 30 312 346 5 10 3 355 357 337 322 305 295 271 255 267 293 306 305 294 292 301 313 328 340 332 322 322 323 321 325 330 334 329 332 330 326 315 302
57 55 49 99 68 40 354 71 32 61 38 57 35 29 89 116 167 265 273 218 301 306 324 316 303 288 276 273 267 280 298 294 305 322 330 329 338 335 355 343 329 327 326 321 326 327 336 338 339 340 335 329 324 311